Location: Milton Keynes
(52.0316°N, 0.7531°W)
Time: 06:11:24
(UTC+00:00)

ISS - Pass Details

Date: 30 January 2019
Orbit: 403 x 411 km, 51.6° (Epoch: 17 February)

Event Time Altitude Azimuth Distance (km) Brightness Sun altitude
Rises 19:35:15 0° 275° (W) 2,339 1.4 -25.9°
Reaches altitude 10° 19:37:20 10° 274° (W) 1,479 0.0 -26.2°
Enters shadow 19:38:54 26° 272° (W) 861 -1.5 -26.4°
